GW1057 Weather Reports


Display with metric or nautical units.
time (UTC)temp
F
wind
direction
speed
MPH
gust
MPH
rain 1hr
in
rain 24hr
in
rain mn
in
humidity
%
barometer
mb
20260505124544 45 30 3.0 9.0 0.02 0.02 0.02 81 1008.5
20260505123052 45 290 3.0 9.0 0.02 0.02 0.02 79 1009.3
20260505121539 46 300 3.0 11.0 0.01 0.01 0.01 78 1009.6
20260505120043 47 279 1.0 16.0 0.00 0.00 0.00 75 1009.1
20260505114533 49 300 5.0 23.0 0.00 0.00 0.00 71 1008.9
20260505113030 50 286 9.0 17.0 0.00 0.00 0.00 69 1008.8
20260505111532 50 302 4.0 14.0 0.00 0.00 0.00 75 1008.5
20260505101529 49 292 3.0 9.0 0.00 0.00 0.00 77 1008.5
20260505100029 49 319 2.0 5.0 0.00 0.00 0.00 77 1008.3
20260505094521 48 296 0.0 3.0 0.00 0.00 0.00 77 1008.9
20260505093020 48 269 0.0 8.0 0.00 0.00 0.00 76 1008.4
20260505091520 48 336 1.0 3.0 0.00 0.00 0.00 76 1008.6
20260505090016 49 309 0.0 0.0 0.00 0.00 0.00 75 1008.5
20260505084515 49 309 0.0 3.0 0.00 0.00 0.00 74 1008.5
20260505083018 49 323 0.0 3.0 0.00 0.00 0.00 74 1008.6
20260505081512 49 321 0.0 3.0 0.00 0.00 0.00 73 1008.9
20260505080017 50 313 1.0 4.0 0.00 0.00 0.00 72 1009.1
20260505074508 50 13 0.0 0.0 0.00 0.00 0.00 70 1009.3
20260505073059 50 13 0.0 2.0 0.00 0.00 0.00 70 1009.2
20260505071505 51 19 0.0 2.0 0.00 0.00 0.00 69 1009.1
20260505070004 51 321 0.0 3.0 0.00 0.00 0.00 68 1008.9
20260505064502 51 278 0.0 3.0 0.00 0.00 0.00 67 1009.2
20260505063101 51 278 0.0 4.0 0.00 0.00 0.00 67 1009.3
20260505061559 52 309 0.0 5.0 0.00 0.00 0.00 67 1008.8
20260505060100 52 329 1.0 4.0 0.00 0.00 0.00 66 1008.4
20260505054553 52 319 1.0 4.0 0.00 0.00 0.00 66 1008.9
20260505053052 52 360 1.0 4.0 0.00 0.00 0.00 65 1009.6
20260505051551 53 11 1.0 8.0 0.00 0.00 0.00 65 1009.8
20260505041554 54 325 6.0 13.0 0.00 0.00 0.00 61 1009.5
20260505040049 55 333 6.0 12.0 0.00 0.00 0.00 59 1009.7
20260505034548 55 319 5.0 16.0 0.00 0.00 0.00 57 1009.8
20260505033048 56 324 7.0 15.0 0.00 0.00 0.00 56 1009.7
20260505031547 56 304 6.0 14.0 0.00 0.00 0.00 54 1009.6
20260505030105 57 319 8.0 20.0 0.00 0.00 0.00 49 1009.1
20260505024549 58 74 9.0 15.0 0.00 0.00 0.00 47 1008.8
20260505023044 60 291 11.0 20.0 0.00 0.00 0.00 41 1008.7
20260505021544 62 315 7.0 16.0 0.00 0.00 0.00 35 1008.7
20260505020044 63 277 6.0 15.0 0.00 0.00 0.00 33 1008.5
20260505014603 63 317 2.0 13.0 0.00 0.00 0.00 33 1008.4
20260505013050 64 289 8.0 17.0 0.00 0.00 0.00 31 1008.2
20260505011545 65 321 9.0 18.0 0.00 0.00 0.00 30 1008.1
20260505010053 66 217 2.0 13.0 0.00 0.00 0.00 28 1007.8
20260505004549 68 296 4.0 14.0 0.00 0.00 0.00 27 1007.8
20260505003054 68 305 2.0 15.0 0.00 0.00 0.00 25 1007.4
20260505001544 69 205 2.0 10.0 0.00 0.00 0.00 24 1007.3
20260505000041 69 153 1.0 11.0 0.00 0.00 0.00 24 1007.3
20260504234539 69 191 2.0 12.0 0.00 0.00 0.00 23 1007.8
20260504233039 70 178 4.0 11.0 0.00 0.00 0.00 23 1007.7
20260504231537 71 292 3.0 16.0 0.00 0.00 0.00 23 1007.9
20260504230037 71 283 2.0 11.0 0.00 0.00 0.00 23 1007.9
20260504224539 72 219 4.0 12.0 0.00 0.00 0.00 23 1008.1
20260504223056 73 186 2.0 8.0 0.00 0.00 0.00 23 1008.1
20260504221541 72 207 2.0 12.0 0.00 0.00 0.00 24 1008.2
20260504220037 72 280 2.0 10.0 0.00 0.00 0.00 22 1008.2
20260504214533 72 250 3.0 12.0 0.00 0.00 0.00 23 1008.4
20260504213031 74 286 3.0 13.0 0.00 0.00 0.00 25 1008.7
20260504211538 73 314 4.0 13.0 0.00 0.00 0.00 26 1008.8
20260504210026 73 278 4.0 16.0 0.00 0.00 0.00 24 1009.1
20260504204525 73 204 4.0 17.0 0.00 0.00 0.00 22 1009.4
20260504203024 73 287 2.0 10.0 0.00 0.00 0.00 23 1009.7
20260504201522 72 223 5.0 10.0 0.00 0.00 0.00 23 1009.6
20260504200023 73 189 4.0 16.0 0.00 0.00 0.00 23 1009.8
20260504194521 73 263 4.0 14.0 0.00 0.00 0.00 24 1009.9
20260504193021 72 186 2.0 10.0 0.00 0.00 0.00 24 1010.0
20260504191518 72 244 4.0 16.0 0.00 0.00 0.00 23 1010.0
20260504190016 73 255 5.0 9.0 0.00 0.00 0.00 22 1010.2
20260504184514 72 269 3.0 20.0 0.00 0.00 0.00 25 1010.8
20260504183013 71 202 6.0 14.0 0.00 0.00 0.00 22 1010.8
20260504181510 70 274 3.0 16.0 0.00 0.00 0.00 28 1010.7
20260504180009 71 297 5.0 10.0 0.00 0.00 0.00 27 1010.8
20260504174509 70 331 4.0 15.0 0.00 0.00 0.00 30 1011.1
20260504173007 69 204 3.0 9.0 0.00 0.00 0.00 32 1011.3
20260504171506 68 310 2.0 10.0 0.00 0.00 0.00 31 1011.7